Year,Month,Day,Hour,Minute,Value (Times are PST for temperature in C)
2013,07,24,00,00,20.50
2013,07,24,00,01,20.50
2013,07,24,00,02,20.40
2013,07,24,00,03,20.40
2013,07,24,00,04,20.40
2013,07,24,00,05,20.50
2013,07,24,00,06,20.50
2013,07,24,00,07,20.60
2013,07,24,00,08,20.60
2013,07,24,00,09,20.70
2013,07,24,00,10,20.70
2013,07,24,00,11,20.70
2013,07,24,00,12,20.70
2013,07,24,00,13,20.80
2013,07,24,00,14,20.80
2013,07,24,00,15,20.80
2013,07,24,00,16,20.80
2013,07,24,00,17,20.70
2013,07,24,00,18,20.70
2013,07,24,00,19,20.60
2013,07,24,00,20,20.60
2013,07,24,00,21,20.50
2013,07,24,00,22,20.40
2013,07,24,00,23,20.30
2013,07,24,00,24,20.20
2013,07,24,00,25,20.00
2013,07,24,00,26,19.90
2013,07,24,00,27,19.80
2013,07,24,00,28,19.70
2013,07,24,00,29,19.70
2013,07,24,00,30,19.60
2013,07,24,00,31,19.50
2013,07,24,00,32,19.40
2013,07,24,00,33,19.40
2013,07,24,00,34,19.30
2013,07,24,00,35,19.30
2013,07,24,00,36,19.30
2013,07,24,00,37,19.30
2013,07,24,00,38,19.30
2013,07,24,00,39,19.30
2013,07,24,00,40,19.20
2013,07,24,00,41,19.20
2013,07,24,00,42,19.20
2013,07,24,00,43,19.20
2013,07,24,00,44,19.20
2013,07,24,00,45,19.30
2013,07,24,00,46,19.30
2013,07,24,00,47,19.30
2013,07,24,00,48,19.40
2013,07,24,00,49,19.40
2013,07,24,00,50,19.50
2013,07,24,00,51,19.50
2013,07,24,00,52,19.50
2013,07,24,00,53,19.60
2013,07,24,00,54,19.60
2013,07,24,00,55,19.70
2013,07,24,00,56,19.70
2013,07,24,00,57,19.70
2013,07,24,00,58,19.80
2013,07,24,00,59,19.80
2013,07,24,01,00,19.80
2013,07,24,01,01,19.80
2013,07,24,01,02,19.70
2013,07,24,01,03,19.70
2013,07,24,01,04,19.70
2013,07,24,01,05,19.60
2013,07,24,01,06,19.60
2013,07,24,01,07,19.60
2013,07,24,01,08,19.50
2013,07,24,01,09,19.50
2013,07,24,01,10,19.40
2013,07,24,01,11,19.40
2013,07,24,01,12,19.40
2013,07,24,01,13,19.40
2013,07,24,01,14,19.40
2013,07,24,01,15,19.40
2013,07,24,01,16,19.30
2013,07,24,01,17,19.30
2013,07,24,01,18,19.30
2013,07,24,01,19,19.30
2013,07,24,01,20,19.30
2013,07,24,01,21,19.30
2013,07,24,01,22,19.30
2013,07,24,01,23,19.30
2013,07,24,01,24,19.30
2013,07,24,01,25,19.30
2013,07,24,01,26,19.20
2013,07,24,01,27,19.20
2013,07,24,01,28,19.20
2013,07,24,01,29,19.20
2013,07,24,01,30,19.10
2013,07,24,01,31,19.10
2013,07,24,01,32,19.10
2013,07,24,01,33,19.10
2013,07,24,01,34,19.00
2013,07,24,01,35,19.00
2013,07,24,01,36,18.90
2013,07,24,01,37,18.80
2013,07,24,01,38,18.80
2013,07,24,01,39,18.70
2013,07,24,01,40,18.70
2013,07,24,01,41,18.70
2013,07,24,01,42,18.60
2013,07,24,01,43,18.60
2013,07,24,01,44,18.60
2013,07,24,01,45,18.70
2013,07,24,01,46,18.70
2013,07,24,01,47,18.80
2013,07,24,01,48,18.80
2013,07,24,01,49,18.80
2013,07,24,01,50,18.90
2013,07,24,01,51,18.90
2013,07,24,01,52,19.00
2013,07,24,01,53,19.10
2013,07,24,01,54,19.10
2013,07,24,01,55,19.20
2013,07,24,01,56,19.20
2013,07,24,01,57,19.30
2013,07,24,01,58,19.30
2013,07,24,01,59,19.30
2013,07,24,02,00,19.30
2013,07,24,02,01,19.40
2013,07,24,02,02,19.40
2013,07,24,02,03,19.40
2013,07,24,02,04,19.30
2013,07,24,02,05,19.30
2013,07,24,02,06,19.30
2013,07,24,02,07,19.30
2013,07,24,02,08,19.30
2013,07,24,02,09,19.30
2013,07,24,02,10,19.30
2013,07,24,02,11,19.30
2013,07,24,02,12,19.30
2013,07,24,02,13,19.20
2013,07,24,02,14,19.20
2013,07,24,02,15,19.20
2013,07,24,02,16,19.20
2013,07,24,02,17,19.10
2013,07,24,02,18,19.10
2013,07,24,02,19,19.10
2013,07,24,02,20,19.10
2013,07,24,02,21,19.10
2013,07,24,02,22,19.10
2013,07,24,02,23,19.00
2013,07,24,02,24,19.00
2013,07,24,02,25,18.90
2013,07,24,02,26,18.90
2013,07,24,02,27,18.90
2013,07,24,02,28,18.90
2013,07,24,02,29,18.80
2013,07,24,02,30,18.80
2013,07,24,02,31,18.70
2013,07,24,02,32,18.70
2013,07,24,02,33,18.60
2013,07,24,02,34,18.60
2013,07,24,02,35,18.50
2013,07,24,02,36,18.40
2013,07,24,02,37,18.40
2013,07,24,02,38,18.30
2013,07,24,02,39,18.20
2013,07,24,02,40,18.10
2013,07,24,02,41,18.00
2013,07,24,02,42,18.00
2013,07,24,02,43,17.90
2013,07,24,02,44,17.80
2013,07,24,02,45,17.70
2013,07,24,02,46,17.60
2013,07,24,02,47,17.60
2013,07,24,02,48,17.50
2013,07,24,02,49,17.50
2013,07,24,02,50,17.40
2013,07,24,02,51,17.40
2013,07,24,02,52,17.40
2013,07,24,02,53,17.40
2013,07,24,02,54,17.40
2013,07,24,02,55,17.40
2013,07,24,02,56,17.40
2013,07,24,02,57,17.40
2013,07,24,02,58,17.40
2013,07,24,02,59,17.40
2013,07,24,03,00,17.40
2013,07,24,03,01,17.40
2013,07,24,03,02,17.30
2013,07,24,03,03,17.30
2013,07,24,03,04,17.30
2013,07,24,03,05,17.20
2013,07,24,03,06,17.20
2013,07,24,03,07,17.20
2013,07,24,03,08,17.20
2013,07,24,03,09,17.20
2013,07,24,03,10,17.20
2013,07,24,03,11,17.20
2013,07,24,03,12,17.20
2013,07,24,03,13,17.30
2013,07,24,03,14,17.30
2013,07,24,03,15,17.30
2013,07,24,03,16,17.40
2013,07,24,03,17,17.50
2013,07,24,03,18,17.50
2013,07,24,03,19,17.60
2013,07,24,03,20,17.60
2013,07,24,03,21,17.70
2013,07,24,03,22,17.70
2013,07,24,03,23,17.80
2013,07,24,03,24,17.80
2013,07,24,03,25,17.80
2013,07,24,03,26,17.80
2013,07,24,03,27,17.90
2013,07,24,03,28,17.90
2013,07,24,03,29,17.90
2013,07,24,03,30,17.90
2013,07,24,03,31,17.80
2013,07,24,03,32,17.80
2013,07,24,03,33,17.80
2013,07,24,03,34,17.70
2013,07,24,03,35,17.70
2013,07,24,03,36,17.70
2013,07,24,03,37,17.60
2013,07,24,03,38,17.50
2013,07,24,03,39,17.50
2013,07,24,03,40,17.40
2013,07,24,03,41,17.30
2013,07,24,03,42,17.20
2013,07,24,03,43,17.10
2013,07,24,03,44,17.00
2013,07,24,03,45,17.00
2013,07,24,03,46,16.90
2013,07,24,03,47,16.90
2013,07,24,03,48,16.90
2013,07,24,03,49,16.90
2013,07,24,03,50,16.90
2013,07,24,03,51,16.90
2013,07,24,03,52,16.90
2013,07,24,03,53,16.80
2013,07,24,03,54,16.80
2013,07,24,03,55,16.80
2013,07,24,03,56,16.80
2013,07,24,03,57,16.70
2013,07,24,03,58,16.70
2013,07,24,03,59,16.70
2013,07,24,04,00,16.70
2013,07,24,04,01,16.70
2013,07,24,04,02,16.60
2013,07,24,04,03,16.60
2013,07,24,04,04,16.60
2013,07,24,04,05,16.50
2013,07,24,04,06,16.50
2013,07,24,04,07,16.40
2013,07,24,04,08,16.40
2013,07,24,04,09,16.40
2013,07,24,04,10,16.30
2013,07,24,04,11,16.30
2013,07,24,04,12,16.20
2013,07,24,04,13,16.20
2013,07,24,04,14,16.20
2013,07,24,04,15,16.10
2013,07,24,04,16,16.10
2013,07,24,04,17,16.10
2013,07,24,04,18,16.00
2013,07,24,04,19,16.00
2013,07,24,04,20,15.90
2013,07,24,04,21,15.90
2013,07,24,04,22,15.80
2013,07,24,04,23,15.80
2013,07,24,04,24,15.80
2013,07,24,04,25,15.70
2013,07,24,04,26,15.70
2013,07,24,04,27,15.60
2013,07,24,04,28,15.60
2013,07,24,04,29,15.60
2013,07,24,04,30,15.60
2013,07,24,04,31,15.50
2013,07,24,04,32,15.50
2013,07,24,04,33,15.50
2013,07,24,04,34,15.50
2013,07,24,04,35,15.50
2013,07,24,04,36,15.50
2013,07,24,04,37,15.40
2013,07,24,04,38,15.40
2013,07,24,04,39,15.40
2013,07,24,04,40,15.40
2013,07,24,04,41,15.40
2013,07,24,04,42,15.50
2013,07,24,04,43,15.50
2013,07,24,04,44,15.60
2013,07,24,04,45,15.70
2013,07,24,04,46,15.80
2013,07,24,04,47,15.90
2013,07,24,04,48,16.00
2013,07,24,04,49,16.00
2013,07,24,04,50,16.10
2013,07,24,04,51,16.10
2013,07,24,04,52,16.10
2013,07,24,04,53,16.10
2013,07,24,04,54,16.10
2013,07,24,04,55,16.00
2013,07,24,04,56,16.00
2013,07,24,04,57,15.90
2013,07,24,04,58,15.90
2013,07,24,04,59,15.90
2013,07,24,05,00,15.80
2013,07,24,05,01,15.80
2013,07,24,05,02,15.70
2013,07,24,05,03,15.60
2013,07,24,05,04,15.60
2013,07,24,05,05,15.60
2013,07,24,05,06,15.50
2013,07,24,05,07,15.50
2013,07,24,05,08,15.40
2013,07,24,05,09,15.40
2013,07,24,05,10,15.30
2013,07,24,05,11,15.30
2013,07,24,05,12,15.30
2013,07,24,05,13,15.20
2013,07,24,05,14,15.20
2013,07,24,05,15,15.20
2013,07,24,05,16,15.20
2013,07,24,05,17,15.10
2013,07,24,05,18,15.00
2013,07,24,05,19,15.00
2013,07,24,05,20,15.00
2013,07,24,05,21,15.00
2013,07,24,05,22,15.00
2013,07,24,05,23,15.00
2013,07,24,05,24,15.00
2013,07,24,05,25,15.00
2013,07,24,05,26,15.00
2013,07,24,05,27,15.00
2013,07,24,05,28,15.00
2013,07,24,05,29,14.90
2013,07,24,05,30,14.90
2013,07,24,05,31,14.80
2013,07,24,05,32,14.80
2013,07,24,05,33,14.80
2013,07,24,05,34,14.80
2013,07,24,05,35,14.70
2013,07,24,05,36,14.70
2013,07,24,05,37,14.70
2013,07,24,05,38,14.70
2013,07,24,05,39,14.60
2013,07,24,05,40,14.60
2013,07,24,05,41,14.60
2013,07,24,05,42,14.60
2013,07,24,05,43,14.60
2013,07,24,05,44,14.60
2013,07,24,05,45,14.60
2013,07,24,05,46,14.60
2013,07,24,05,47,14.50
2013,07,24,05,48,14.50
2013,07,24,05,49,14.50
2013,07,24,05,50,14.40
2013,07,24,05,51,14.40
2013,07,24,05,52,14.40
2013,07,24,05,53,14.40
2013,07,24,05,54,14.40
2013,07,24,05,55,14.40
2013,07,24,05,56,14.40
2013,07,24,05,57,14.40
2013,07,24,05,58,14.40
2013,07,24,05,59,14.40
2013,07,24,06,00,14.40
2013,07,24,06,01,14.40
2013,07,24,06,02,14.40
2013,07,24,06,03,14.50
2013,07,24,06,04,14.50
2013,07,24,06,05,14.50
2013,07,24,06,06,14.50
2013,07,24,06,07,14.60
2013,07,24,06,08,14.60
2013,07,24,06,09,14.60
2013,07,24,06,10,14.70
2013,07,24,06,11,14.70
2013,07,24,06,12,14.70
2013,07,24,06,13,14.70
2013,07,24,06,14,14.70
2013,07,24,06,15,14.80
2013,07,24,06,16,14.80
2013,07,24,06,17,14.80
2013,07,24,06,18,14.80
2013,07,24,06,19,14.90
2013,07,24,06,20,15.00
2013,07,24,06,21,15.00
2013,07,24,06,22,15.00
2013,07,24,06,23,15.00
2013,07,24,06,24,15.00
2013,07,24,06,25,15.00
2013,07,24,06,26,15.10
2013,07,24,06,27,15.10
2013,07,24,06,28,15.20
2013,07,24,06,29,15.20
2013,07,24,06,30,15.30
2013,07,24,06,31,15.30
2013,07,24,06,32,15.40
2013,07,24,06,33,15.40
2013,07,24,06,34,15.50
2013,07,24,06,35,15.60
2013,07,24,06,36,15.60
2013,07,24,06,37,15.70
2013,07,24,06,38,15.70
2013,07,24,06,39,15.70
2013,07,24,06,40,15.80
2013,07,24,06,41,15.80
2013,07,24,06,42,15.80
2013,07,24,06,43,15.80
2013,07,24,06,44,15.90
2013,07,24,06,45,15.90
2013,07,24,06,46,15.90
2013,07,24,06,47,15.90
2013,07,24,06,48,16.00
2013,07,24,06,49,16.00
2013,07,24,06,50,16.10
2013,07,24,06,51,16.10
2013,07,24,06,52,16.10
2013,07,24,06,53,16.10
2013,07,24,06,54,16.20
2013,07,24,06,55,16.20
2013,07,24,06,56,16.20
2013,07,24,06,57,16.20
2013,07,24,06,58,16.30
2013,07,24,06,59,16.30
2013,07,24,07,00,16.30
2013,07,24,07,01,16.40
2013,07,24,07,02,16.40
2013,07,24,07,03,16.50
2013,07,24,07,04,16.60
2013,07,24,07,05,16.70
2013,07,24,07,06,16.80
2013,07,24,07,07,16.80
2013,07,24,07,08,17.00
2013,07,24,07,09,17.00
2013,07,24,07,10,17.10
2013,07,24,07,11,17.20
2013,07,24,07,12,17.30
2013,07,24,07,13,17.40
2013,07,24,07,14,17.50
2013,07,24,07,15,17.60
2013,07,24,07,16,17.70
2013,07,24,07,17,17.80
2013,07,24,07,18,17.90
2013,07,24,07,19,18.00
2013,07,24,07,20,18.00
2013,07,24,07,21,18.10
2013,07,24,07,22,18.20
2013,07,24,07,23,18.30
2013,07,24,07,24,18.30
2013,07,24,07,25,18.40
2013,07,24,07,26,18.40
2013,07,24,07,27,18.50
2013,07,24,07,28,18.50
2013,07,24,07,29,18.60
2013,07,24,07,30,18.60
2013,07,24,07,31,18.60
2013,07,24,07,32,18.60
2013,07,24,07,33,18.60
2013,07,24,07,34,18.70
2013,07,24,07,35,18.70
2013,07,24,07,36,18.70
2013,07,24,07,37,18.70
2013,07,24,07,38,18.80
2013,07,24,07,39,18.80
2013,07,24,07,40,18.80
2013,07,24,07,41,18.80
2013,07,24,07,42,18.80
2013,07,24,07,43,18.80
2013,07,24,07,44,18.80
2013,07,24,07,45,18.80
2013,07,24,07,46,18.80
2013,07,24,07,47,18.80
2013,07,24,07,48,18.80
2013,07,24,07,49,18.80
2013,07,24,07,50,18.80
2013,07,24,07,51,18.80
2013,07,24,07,52,18.80
2013,07,24,07,53,18.80
2013,07,24,07,54,18.80
2013,07,24,07,55,18.80
2013,07,24,07,56,18.80
2013,07,24,07,57,18.80
2013,07,24,07,58,18.90
2013,07,24,07,59,18.90
2013,07,24,08,00,18.90
2013,07,24,08,01,18.90
2013,07,24,08,02,19.00
2013,07,24,08,03,19.10
2013,07,24,08,04,19.10
2013,07,24,08,05,19.20
2013,07,24,08,06,19.20
2013,07,24,08,07,19.30
2013,07,24,08,08,19.30
2013,07,24,08,09,19.40
2013,07,24,08,10,19.40
2013,07,24,08,11,19.40
2013,07,24,08,12,19.50
2013,07,24,08,13,19.50
2013,07,24,08,14,19.50
2013,07,24,08,15,19.60
2013,07,24,08,16,19.60
2013,07,24,08,17,19.70
2013,07,24,08,18,19.70
2013,07,24,08,19,19.80
2013,07,24,08,20,19.80
2013,07,24,08,21,19.90
2013,07,24,08,22,19.90
2013,07,24,08,23,19.90
2013,07,24,08,24,19.90
2013,07,24,08,25,19.90
2013,07,24,08,26,19.90
2013,07,24,08,27,19.80
2013,07,24,08,28,19.80
2013,07,24,08,29,19.80
2013,07,24,08,30,19.80
2013,07,24,08,31,19.70
2013,07,24,08,32,19.70
2013,07,24,08,33,19.70
2013,07,24,08,34,19.70
2013,07,24,08,35,19.70
2013,07,24,08,36,19.70
2013,07,24,08,37,19.70
2013,07,24,08,38,19.80
2013,07,24,08,39,19.90
2013,07,24,08,40,19.90
2013,07,24,08,41,20.00
2013,07,24,08,42,20.00
2013,07,24,08,43,20.10
2013,07,24,08,44,20.10
2013,07,24,08,45,20.00
2013,07,24,08,46,20.00
2013,07,24,08,47,20.00
2013,07,24,08,48,19.90
2013,07,24,08,49,20.00
2013,07,24,08,50,20.00
2013,07,24,08,51,20.00
2013,07,24,08,52,20.00
2013,07,24,08,53,20.00
2013,07,24,08,54,20.10
2013,07,24,08,55,20.10
2013,07,24,08,56,20.10
2013,07,24,08,57,20.10
2013,07,24,08,58,20.10
2013,07,24,08,59,20.10
2013,07,24,09,00,20.10
2013,07,24,09,01,20.00
2013,07,24,09,02,20.00
2013,07,24,09,03,20.00
2013,07,24,09,04,19.90
2013,07,24,09,05,19.90
2013,07,24,09,06,19.80
2013,07,24,09,07,19.80
2013,07,24,09,08,19.80
2013,07,24,09,09,19.80
2013,07,24,09,10,19.80
2013,07,24,09,11,19.80
2013,07,24,09,12,19.80
2013,07,24,09,13,19.80
2013,07,24,09,14,19.90
2013,07,24,09,15,19.90
2013,07,24,09,16,19.90
2013,07,24,09,17,19.90
2013,07,24,09,18,19.90
2013,07,24,09,19,19.90
2013,07,24,09,20,19.90
2013,07,24,09,21,19.80
2013,07,24,09,22,19.80
2013,07,24,09,23,19.70
2013,07,24,09,24,19.70
2013,07,24,09,25,19.60
2013,07,24,09,26,19.60
2013,07,24,09,27,19.60
2013,07,24,09,28,19.60
2013,07,24,09,29,19.60
2013,07,24,09,30,19.60
2013,07,24,09,31,19.60
2013,07,24,09,32,19.60
2013,07,24,09,33,19.60
2013,07,24,09,34,19.50
2013,07,24,09,35,19.50
2013,07,24,09,36,19.60
2013,07,24,09,37,19.60
2013,07,24,09,38,19.60
2013,07,24,09,39,19.70
2013,07,24,09,40,19.70
2013,07,24,09,41,19.70
2013,07,24,09,42,19.70
2013,07,24,09,43,19.80
2013,07,24,09,44,19.80
2013,07,24,09,45,19.80
2013,07,24,09,46,19.80
2013,07,24,09,47,19.80
2013,07,24,09,48,19.80
2013,07,24,09,49,19.80
2013,07,24,09,50,19.80
2013,07,24,09,51,19.80
2013,07,24,09,52,19.80
2013,07,24,09,53,19.90
2013,07,24,09,54,19.90
2013,07,24,09,55,19.90
2013,07,24,09,56,19.90
2013,07,24,09,57,20.00
2013,07,24,09,58,20.00
2013,07,24,09,59,20.00
2013,07,24,10,00,20.10
2013,07,24,10,01,20.10
2013,07,24,10,02,20.20
2013,07,24,10,03,20.20
2013,07,24,10,04,20.10
2013,07,24,10,05,20.10
2013,07,24,10,06,20.10
2013,07,24,10,07,20.00
2013,07,24,10,08,19.90
2013,07,24,10,09,19.90
2013,07,24,10,10,19.90
2013,07,24,10,11,19.80
2013,07,24,10,12,19.80
2013,07,24,10,13,19.80
2013,07,24,10,14,19.80
2013,07,24,10,15,19.80
2013,07,24,10,16,19.80
2013,07,24,10,17,19.80
2013,07,24,10,18,19.80
2013,07,24,10,19,19.70
2013,07,24,10,20,19.70
2013,07,24,10,21,19.70
2013,07,24,10,22,19.70
2013,07,24,10,23,19.60
2013,07,24,10,24,19.60
2013,07,24,10,25,19.70
2013,07,24,10,26,19.70
2013,07,24,10,27,19.70
2013,07,24,10,28,19.70
2013,07,24,10,29,19.70
2013,07,24,10,30,19.80
2013,07,24,10,31,19.80
2013,07,24,10,32,19.90
2013,07,24,10,33,19.90
2013,07,24,10,34,19.90
2013,07,24,10,35,19.90
2013,07,24,10,36,20.00
2013,07,24,10,37,20.00
2013,07,24,10,38,20.00
2013,07,24,10,39,20.10
2013,07,24,10,40,20.20
2013,07,24,10,41,20.20
2013,07,24,10,42,20.20
2013,07,24,10,43,20.20
2013,07,24,10,44,20.20
2013,07,24,10,45,20.10
2013,07,24,10,46,20.10
2013,07,24,10,47,20.10
2013,07,24,10,48,20.10
2013,07,24,10,49,20.10
2013,07,24,10,50,20.10
2013,07,24,10,51,20.10
2013,07,24,10,52,20.10
2013,07,24,10,53,20.10
2013,07,24,10,54,20.20
2013,07,24,10,55,20.20
2013,07,24,10,56,20.30
2013,07,24,10,57,20.30
2013,07,24,10,58,20.30
2013,07,24,10,59,20.30
2013,07,24,11,00,20.40
2013,07,24,11,01,20.40
2013,07,24,11,02,20.50
2013,07,24,11,03,20.60
2013,07,24,11,04,20.70
2013,07,24,11,05,20.80
2013,07,24,11,06,20.80
2013,07,24,11,07,20.90
2013,07,24,11,08,20.90
2013,07,24,11,09,20.90
2013,07,24,11,10,20.80
2013,07,24,11,11,20.80
2013,07,24,11,12,20.70
2013,07,24,11,13,20.60
2013,07,24,11,14,20.60
2013,07,24,11,15,20.50
2013,07,24,11,16,20.40
2013,07,24,11,17,20.30
2013,07,24,11,18,20.30
2013,07,24,11,19,20.30
2013,07,24,11,20,20.40
2013,07,24,11,21,20.40
2013,07,24,11,22,20.40
2013,07,24,11,23,20.40
2013,07,24,11,24,20.40
2013,07,24,11,25,20.40
2013,07,24,11,26,20.50
2013,07,24,11,27,20.50
2013,07,24,11,28,20.60
2013,07,24,11,29,20.60
2013,07,24,11,30,20.70
2013,07,24,11,31,20.70
2013,07,24,11,32,20.70
2013,07,24,11,33,20.70
2013,07,24,11,34,20.70
2013,07,24,11,35,20.80
2013,07,24,11,36,20.80
2013,07,24,11,37,20.90
2013,07,24,11,38,20.80
2013,07,24,11,39,20.80
2013,07,24,11,40,20.80
2013,07,24,11,41,20.70
2013,07,24,11,42,20.70
2013,07,24,11,43,20.70
2013,07,24,11,44,20.80
2013,07,24,11,45,20.80
2013,07,24,11,46,20.90
2013,07,24,11,47,21.00
2013,07,24,11,48,21.00
2013,07,24,11,49,21.20
2013,07,24,11,50,21.30
2013,07,24,11,51,21.30
2013,07,24,11,52,21.40
2013,07,24,11,53,21.40
2013,07,24,11,54,21.50
2013,07,24,11,55,21.60
2013,07,24,11,56,21.60
2013,07,24,11,57,21.70
2013,07,24,11,58,21.80
2013,07,24,11,59,21.80
2013,07,24,12,00,21.80
2013,07,24,12,01,21.80
2013,07,24,12,02,21.80
2013,07,24,12,03,21.70
2013,07,24,12,04,21.70
2013,07,24,12,05,21.70
2013,07,24,12,06,21.70
2013,07,24,12,07,21.80
2013,07,24,12,08,21.80
2013,07,24,12,09,21.80
2013,07,24,12,10,21.80
2013,07,24,12,11,21.80
2013,07,24,12,12,21.80
2013,07,24,12,13,21.80
2013,07,24,12,14,21.80
2013,07,24,12,15,21.80
2013,07,24,12,16,21.80
2013,07,24,12,17,21.80
2013,07,24,12,18,21.80
2013,07,24,12,19,21.80
2013,07,24,12,20,21.80
2013,07,24,12,21,21.80
2013,07,24,12,22,21.80
2013,07,24,12,23,21.80
2013,07,24,12,24,21.80
2013,07,24,12,25,21.80
2013,07,24,12,26,21.80
2013,07,24,12,27,21.80
2013,07,24,12,28,21.80
2013,07,24,12,29,21.90
2013,07,24,12,30,21.90
2013,07,24,12,31,22.00
2013,07,24,12,32,22.00
2013,07,24,12,33,22.00
2013,07,24,12,34,22.00
2013,07,24,12,35,22.00
2013,07,24,12,36,22.00
2013,07,24,12,37,22.10
2013,07,24,12,38,22.10
2013,07,24,12,39,22.10
2013,07,24,12,40,22.10
2013,07,24,12,41,22.10
2013,07,24,12,42,22.10
2013,07,24,12,43,22.10
2013,07,24,12,44,22.00
2013,07,24,12,45,22.00
2013,07,24,12,46,21.90
2013,07,24,12,47,21.80
2013,07,24,12,48,21.70
2013,07,24,12,49,21.70
2013,07,24,12,50,21.60
2013,07,24,12,51,21.60
2013,07,24,12,52,21.60
2013,07,24,12,53,21.60
2013,07,24,12,54,21.60
2013,07,24,12,55,21.60
2013,07,24,12,56,21.60
2013,07,24,12,57,21.60
2013,07,24,12,58,21.60
2013,07,24,12,59,21.70
2013,07,24,13,00,21.70
2013,07,24,13,01,21.80
2013,07,24,13,02,21.80
2013,07,24,13,03,21.90
2013,07,24,13,04,21.90
2013,07,24,13,05,21.90
2013,07,24,13,06,22.00
2013,07,24,13,07,22.10
2013,07,24,13,08,22.10
2013,07,24,13,09,22.00
2013,07,24,13,10,21.90
2013,07,24,13,11,21.90
2013,07,24,13,12,21.80
2013,07,24,13,13,21.80
2013,07,24,13,14,21.70
2013,07,24,13,15,21.70
2013,07,24,13,16,21.60
2013,07,24,13,17,21.60
2013,07,24,13,18,21.60
2013,07,24,13,19,21.70
2013,07,24,13,20,21.70
2013,07,24,13,21,21.80
2013,07,24,13,22,21.80
2013,07,24,13,23,21.80
2013,07,24,13,24,21.80
2013,07,24,13,25,21.80
2013,07,24,13,26,21.80
2013,07,24,13,27,21.80
2013,07,24,13,28,21.80
2013,07,24,13,29,21.80
2013,07,24,13,30,21.80
2013,07,24,13,31,21.80
2013,07,24,13,32,21.90
2013,07,24,13,33,22.00
2013,07,24,13,34,22.10
2013,07,24,13,35,22.10
2013,07,24,13,36,22.10
2013,07,24,13,37,22.20
2013,07,24,13,38,22.20
2013,07,24,13,39,22.20
2013,07,24,13,40,22.30
2013,07,24,13,41,22.30
2013,07,24,13,42,22.30
2013,07,24,13,43,22.30
2013,07,24,13,44,22.30
2013,07,24,13,45,22.40
2013,07,24,13,46,22.40
2013,07,24,13,47,22.40
2013,07,24,13,48,22.50
2013,07,24,13,49,22.60
2013,07,24,13,50,22.60
2013,07,24,13,51,22.60
2013,07,24,13,52,22.60
2013,07,24,13,53,22.70
2013,07,24,13,54,22.60
2013,07,24,13,55,22.60
2013,07,24,13,56,22.60
2013,07,24,13,57,22.50
2013,07,24,13,58,22.50
2013,07,24,13,59,22.40
2013,07,24,14,00,22.40
2013,07,24,14,01,22.50
2013,07,24,14,02,22.50
2013,07,24,14,03,22.60
2013,07,24,14,04,22.60
2013,07,24,14,05,22.60
2013,07,24,14,06,22.70
2013,07,24,14,07,22.70
2013,07,24,14,08,22.70
2013,07,24,14,09,22.70
2013,07,24,14,10,22.70
2013,07,24,14,11,22.70
2013,07,24,14,12,22.60
2013,07,24,14,13,22.60
2013,07,24,14,14,22.60
2013,07,24,14,15,22.60
2013,07,24,14,16,22.60
2013,07,24,14,17,22.60
2013,07,24,14,18,22.60
2013,07,24,14,19,22.60
2013,07,24,14,20,22.60
2013,07,24,14,21,22.60
2013,07,24,14,22,22.50
2013,07,24,14,23,22.50
2013,07,24,14,24,22.50
2013,07,24,14,25,22.60
2013,07,24,14,26,22.60
2013,07,24,14,27,22.70
2013,07,24,14,28,22.80
2013,07,24,14,29,22.80
2013,07,24,14,30,22.90
2013,07,24,14,31,22.90
2013,07,24,14,32,23.00
2013,07,24,14,33,23.00
2013,07,24,14,34,23.10
2013,07,24,14,35,23.10
2013,07,24,14,36,23.00
2013,07,24,14,37,23.10
2013,07,24,14,38,23.10
2013,07,24,14,39,23.20
2013,07,24,14,40,23.20
2013,07,24,14,41,23.20
2013,07,24,14,42,23.30
2013,07,24,14,43,23.20
2013,07,24,14,44,23.20
2013,07,24,14,45,23.20
2013,07,24,14,46,23.20
2013,07,24,14,47,23.20
2013,07,24,14,48,23.20
2013,07,24,14,49,23.10
2013,07,24,14,50,23.10
2013,07,24,14,51,23.10
2013,07,24,14,52,23.10
2013,07,24,14,53,23.10
2013,07,24,14,54,23.10
2013,07,24,14,55,23.20
2013,07,24,14,56,23.20
2013,07,24,14,57,23.20
2013,07,24,14,58,23.20
2013,07,24,14,59,23.20
2013,07,24,15,00,23.20
2013,07,24,15,01,23.20
2013,07,24,15,02,23.20
2013,07,24,15,03,23.20
2013,07,24,15,04,23.10
2013,07,24,15,05,23.20
2013,07,24,15,06,23.20
2013,07,24,15,07,23.20
2013,07,24,15,08,23.30
2013,07,24,15,09,23.40
2013,07,24,15,10,23.50
2013,07,24,15,11,23.60
2013,07,24,15,12,23.70
2013,07,24,15,13,23.80
2013,07,24,15,14,24.00
2013,07,24,15,15,24.10
2013,07,24,15,16,24.20
2013,07,24,15,17,24.30
2013,07,24,15,18,24.40
2013,07,24,15,19,24.50
2013,07,24,15,20,24.50
2013,07,24,15,21,24.60
2013,07,24,15,22,24.60
2013,07,24,15,23,24.60
2013,07,24,15,24,24.70
2013,07,24,15,25,24.70
2013,07,24,15,26,24.70
2013,07,24,15,27,24.70
2013,07,24,15,28,24.70
2013,07,24,15,29,24.70
2013,07,24,15,30,24.70
2013,07,24,15,31,24.70
2013,07,24,15,32,24.70
2013,07,24,15,33,24.80
2013,07,24,15,34,24.80
2013,07,24,15,35,24.80
2013,07,24,15,36,24.70
2013,07,24,15,37,24.70
2013,07,24,15,38,24.70
2013,07,24,15,39,24.70
2013,07,24,15,40,24.60
2013,07,24,15,41,24.60
2013,07,24,15,42,24.60
2013,07,24,15,43,24.70
2013,07,24,15,44,24.70
2013,07,24,15,45,24.70
2013,07,24,15,46,24.70
2013,07,24,15,47,24.80
2013,07,24,15,48,24.80
2013,07,24,15,49,24.80
2013,07,24,15,50,24.80
2013,07,24,15,51,24.80
2013,07,24,15,52,24.80
2013,07,24,15,53,24.80
2013,07,24,15,54,24.90
2013,07,24,15,55,24.90
2013,07,24,15,56,24.80
2013,07,24,15,57,24.80
2013,07,24,15,58,24.80
2013,07,24,15,59,24.80
2013,07,24,16,00,24.70
2013,07,24,16,01,24.70
2013,07,24,16,02,24.80
2013,07,24,16,03,24.80
2013,07,24,16,04,24.80
2013,07,24,16,05,24.90
2013,07,24,16,06,24.90
2013,07,24,16,07,25.00
2013,07,24,16,08,25.00
2013,07,24,16,09,25.00
2013,07,24,16,10,25.10
2013,07,24,16,11,25.10
2013,07,24,16,12,25.20
2013,07,24,16,13,25.20
2013,07,24,16,14,25.20
2013,07,24,16,15,25.20
2013,07,24,16,16,25.10
2013,07,24,16,17,25.10
2013,07,24,16,18,25.10
2013,07,24,16,19,25.10
2013,07,24,16,20,25.10
2013,07,24,16,21,25.10
2013,07,24,16,22,25.20
2013,07,24,16,23,25.20
2013,07,24,16,24,25.10
2013,07,24,16,25,25.10
2013,07,24,16,26,25.10
2013,07,24,16,27,25.10
2013,07,24,16,28,25.10
2013,07,24,16,29,25.10
2013,07,24,16,30,25.10
2013,07,24,16,31,25.10
2013,07,24,16,32,25.10
2013,07,24,16,33,25.20
2013,07,24,16,34,25.20
2013,07,24,16,35,25.30
2013,07,24,16,36,25.30
2013,07,24,16,37,25.40
2013,07,24,16,38,25.50
2013,07,24,16,39,25.60
2013,07,24,16,40,25.60
2013,07,24,16,41,25.70
2013,07,24,16,42,25.70
2013,07,24,16,43,25.70
2013,07,24,16,44,25.70
2013,07,24,16,45,25.80
2013,07,24,16,46,25.80
2013,07,24,16,47,25.80
2013,07,24,16,48,25.90
2013,07,24,16,49,25.90
2013,07,24,16,50,25.90
2013,07,24,16,51,26.00
2013,07,24,16,52,26.00
2013,07,24,16,53,26.10
2013,07,24,16,54,26.10
2013,07,24,16,55,26.20
2013,07,24,16,56,26.20
2013,07,24,16,57,26.30
2013,07,24,16,58,26.30
2013,07,24,16,59,26.30
2013,07,24,17,00,26.20
2013,07,24,17,01,26.20
2013,07,24,17,02,26.10
2013,07,24,17,03,26.00
2013,07,24,17,04,26.00
2013,07,24,17,05,25.90
2013,07,24,17,06,25.90
2013,07,24,17,07,25.90
2013,07,24,17,08,25.80
2013,07,24,17,09,25.80
2013,07,24,17,10,25.80
2013,07,24,17,11,25.70
2013,07,24,17,12,25.70
2013,07,24,17,13,25.70
2013,07,24,17,14,25.70
2013,07,24,17,15,25.70
2013,07,24,17,16,25.70
2013,07,24,17,17,25.70
2013,07,24,17,18,25.80
2013,07,24,17,19,25.80